CW5367 Weather Reports


time (UTC)temp
F
wind
direction
speed
knots
gust
knots
rain 1hr
in
rain 24hr
in
rain mn
in
humidity
%
barometer
mb
20260504002553 50 0 0.0 0.0 0.00 0.00 0.00 54 1011.8
20260504002052 51 0 0.0 0.0 0.00 0.00 0.00 53 1011.7
20260504001602 51 0 0.0 0.0 0.00 0.00 0.00 51 1011.6
20260504001052 52 0 0.0 0.0 0.00 0.00 0.00 50 1011.6
20260504000552 52 0 0.0 0.0 0.00 0.00 0.00 49 1011.5
20260503235552 53 0 0.0 0.0 0.00 0.00 0.00 48 1011.4
20260503235052 53 0 0.0 0.0 0.00 0.00 0.00 46 1011.4
20260503234552 54 0 0.0 0.0 0.00 0.00 0.00 47 1011.4
20260503234052 54 0 0.0 0.0 0.00 0.00 0.00 48 1011.4
20260503233552 55 0 0.0 0.0 0.00 0.00 0.00 43 1011.4
20260503233053 55 0 0.0 0.0 0.00 0.00 0.00 43 1011.4
20260503232553 55 0 0.0 0.0 0.00 0.00 0.00 41 1011.4
20260503232049 56 0 0.0 0.0 0.00 0.00 0.00 43 1011.3
20260503231607 56 0 0.0 0.9 0.00 0.00 0.00 43 1011.3
20260503231052 57 0 0.0 0.9 0.00 0.00 0.00 41 1011.3
20260503230551 57 0 0.0 0.0 0.00 0.00 0.00 38 1011.3
20260503230105 57 0 0.0 0.9 0.00 0.00 0.00 39 1011.2
20260503225556 57 0 0.0 4.3 0.00 0.00 0.00 40 1011.1
20260503225051 57 0 0.0 4.3 0.00 0.00 0.00 39 1011.2
20260503224603 57 0 0.0 4.3 0.00 0.00 0.00 41 1011.0
20260503224052 58 0 0.0 1.7 0.00 0.00 0.00 40 1011.0
20260503223552 58 0 0.0 6.1 0.00 0.00 0.00 38 1011.0
20260503223051 58 0 0.0 6.1 0.00 0.00 0.00 37 1011.0
20260503222552 58 0 0.0 4.3 0.00 0.00 0.00 38 1011.0
20260503222052 58 0 0.0 7.0 0.00 0.00 0.00 40 1011.0
20260503221556 58 0 0.0 7.0 0.00 0.00 0.00 38 1010.9
20260503221054 58 0 0.0 4.3 0.00 0.00 0.00 37 1010.9
20260503220552 59 0 0.0 4.3 0.00 0.00 0.00 39 1011.0
20260503220055 59 0 0.0 4.3 0.00 0.00 0.00 35 1010.8
20260503215552 59 0 0.0 3.5 0.00 0.00 0.00 36 1010.7
20260503215052 59 0 0.0 3.5 0.00 0.00 0.00 37 1010.8
20260503214558 59 0 0.0 4.3 0.00 0.00 0.00 38 1010.9
20260503214048 59 0 0.0 4.3 0.00 0.00 0.00 34 1010.9
20260503213553 59 0 0.0 2.6 0.00 0.00 0.00 36 1010.8
20260503213103 59 0 0.0 1.7 0.00 0.00 0.00 36 1010.8
20260503212553 59 0 0.0 0.9 0.00 0.00 0.00 36 1010.8
20260503212052 59 0 0.0 5.2 0.00 0.00 0.00 38 1010.8
20260503211614 59 0 0.0 7.8 0.00 0.00 0.00 33 1010.8
20260503211052 60 220 0.0 7.8 0.00 0.00 0.00 36 1011.0
20260503210552 60 0 0.0 3.5 0.00 0.00 0.00 34 1010.9
20260503210056 60 184 0.0 2.6 0.00 0.00 0.00 35 1010.9
20260503205552 60 0 0.0 2.6 0.00 0.00 0.00 36 1010.7
20260503205052 60 0 0.0 2.6 0.00 0.00 0.00 37 1010.7
20260503204558 60 0 0.0 7.8 0.00 0.00 0.00 37 1010.8
20260503204052 59 0 0.0 7.8 0.00 0.00 0.00 37 1010.9
20260503203552 59 0 0.0 7.8 0.00 0.00 0.00 36 1011.0
20260503203059 59 0 0.0 3.5 0.00 0.00 0.00 35 1010.9
20260503202552 59 0 0.0 3.5 0.00 0.00 0.00 37 1011.0
20260503202054 59 0 0.0 3.5 0.00 0.00 0.00 38 1011.1
20260503201556 59 0 0.0 5.2 0.00 0.00 0.00 38 1011.1
20260503201052 58 0 0.0 5.2 0.00 0.00 0.00 38 1011.0
20260503200548 57 0 0.0 5.2 0.00 0.00 0.00 38 1011.1
20260503200106 58 0 0.0 7.8 0.00 0.00 0.00 39 1011.3
20260503195548 59 0 0.0 7.8 0.00 0.00 0.00 39 1011.2
20260503195052 59 0 0.9 7.8 0.00 0.00 0.00 37 1011.2
20260503194604 59 0 0.0 6.1 0.00 0.00 0.00 34 1011.3
20260503194053 59 42 0.0 6.1 0.00 0.00 0.00 40 1011.3
20260503193552 59 0 0.0 6.1 0.00 0.00 0.00 34 1011.2
20260503193104 58 0 0.0 6.1 0.00 0.00 0.00 36 1011.2
20260503192552 58 71 0.0 0.9 0.00 0.00 0.00 39 1011.4
20260503192052 58 0 0.0 6.1 0.00 0.00 0.00 38 1011.4
20260503191606 58 0 0.0 6.1 0.00 0.00 0.00 38 1011.5
20260503191052 59 0 0.0 6.1 0.00 0.00 0.00 37 1011.6
20260503190552 58 0 0.0 6.1 0.00 0.00 0.00 39 1011.5
20260503190051 58 55 0.0 5.2 0.00 0.00 0.00 41 1011.4
20260503185551 58 0 0.0 5.2 0.00 0.00 0.00 42 1011.4
20260503185052 57 0 0.0 2.6 0.00 0.00 0.00 39 1011.5
20260503184601 56 0 0.0 5.2 0.00 0.00 0.00 43 1011.6
20260503184053 56 0 0.0 8.7 0.00 0.00 0.00 38 1011.8
20260503183549 56 0 0.0 8.7 0.00 0.00 0.00 39 1011.7
20260503183055 56 0 0.0 6.1 0.00 0.00 0.00 37 1011.8
20260503182552 57 0 0.0 6.1 0.00 0.00 0.00 37 1011.8
20260503182053 57 0 0.0 6.1 0.00 0.00 0.00 37 1011.9
20260503181612 56 0 0.0 5.2 0.00 0.00 0.00 39 1011.8
20260503181053 56 0 0.0 5.2 0.00 0.00 0.00 42 1011.8
20260503180552 56 0 0.0 1.7 0.00 0.00 0.00 40 1011.8
20260503180115 57 0 0.0 0.9 0.00 0.00 0.00 41 1011.9
20260503175551 56 0 0.0 7.0 0.00 0.00 0.00 39 1011.8
20260503175052 56 0 0.0 7.0 0.00 0.00 0.00 45 1011.9
20260503174558 56 0 0.0 4.3 0.00 0.00 0.00 42 1011.9
20260503174049 55 0 0.0 3.5 0.00 0.00 0.00 47 1011.9
20260503173552 55 0 0.0 1.7 0.00 0.00 0.00 41 1012.1
20260503173106 55 0 0.0 7.8 0.00 0.00 0.00 40 1012.1
20260503172556 55 0 0.0 7.8 0.00 0.00 0.00 43 1012.2
20260503172052 55 332 0.9 5.2 0.00 0.00 0.00 43 1012.2
20260503171554 55 323 0.0 4.3 0.00 0.00 0.00 44 1012.1
20260503171051 54 0 0.0 4.3 0.00 0.00 0.00 49 1012.3
20260503170553 54 0 0.0 4.3 0.00 0.00 0.00 43 1012.4
20260503150552 49 0 0.0 5.2 0.00 0.00 0.00 54 1013.2
20260503150106 49 0 0.0 5.2 0.00 0.00 0.00 53 1013.1
20260503131052 49 0 0.0 2.6 0.00 0.00 0.00 58 1012.9
20260503130554 48 0 0.0 2.6 0.00 0.00 0.00 61 1012.8
20260503110553 42 0 0.0 0.0 0.00 0.00 0.00 67 1012.3
20260503100105 42 0 0.0 0.0 0.00 0.00 0.00 68 1011.3
20260503081557 43 0 0.0 0.0 0.00 0.00 0.00 66 1010.8
20260503081052 43 0 0.0 0.0 0.00 0.00 0.00 67 1010.8
20260503080555 43 0 0.0 0.0 0.00 0.00 0.00 66 1010.8
20260503080105 43 0 0.0 0.0 0.00 0.00 0.00 65 1010.7
20260503072554 44 0 0.0 0.0 0.00 0.00 0.00 62 1010.6
20260503072052 45 0 0.0 0.0 0.00 0.00 0.00 62 1010.6
20260503071601 45 0 0.0 0.0 0.00 0.00 0.00 61 1010.6
20260503071055 45 0 0.0 0.0 0.00 0.00 0.00 62 1010.6
20260503070552 45 0 0.0 0.0 0.00 0.00 0.00 62 1010.5
20260503055055 46 0 0.0 0.0 0.00 0.00 0.00 57 1010.7
20260503054606 46 0 0.0 0.0 0.00 0.00 0.00 57 1010.6
20260503054052 46 0 0.0 0.0 0.00 0.00 0.00 57 1010.7
20260503053552 46 0 0.0 0.0 0.00 0.00 0.00 56 1010.7
20260503053059 46 0 0.0 1.7 0.00 0.00 0.00 57 1010.8
20260503052552 46 0 0.0 1.7 0.00 0.00 0.00 57 1010.8
20260503052053 46 0 0.0 1.7 0.00 0.00 0.00 57 1010.8
20260503051602 46 0 0.0 0.0 0.00 0.00 0.00 57 1010.9
20260503051052 47 0 0.0 0.0 0.00 0.00 0.00 57 1011.0
20260503050553 47 0 0.0 0.0 0.00 0.00 0.00 59 1011.1
20260503050059 47 0 0.0 0.0 0.00 0.00 0.00 56 1011.1
20260503045553 47 0 0.0 0.0 0.00 0.00 0.00 58 1011.1
20260503045053 47 0 0.0 0.0 0.00 0.00 0.00 58 1011.1
20260503044610 47 0 0.0 0.0 0.00 0.00 0.00 56 1011.1
20260503044052 47 0 0.0 0.0 0.00 0.00 0.00 56 1011.2
20260503043552 47 0 0.0 0.0 0.00 0.00 0.00 58 1011.3
20260503043058 48 0 0.0 0.0 0.00 0.00 0.00 56 1011.4
20260503042552 48 0 0.0 0.0 0.00 0.00 0.00 56 1011.4
20260503042052 48 0 0.0 0.0 0.00 0.00 0.00 53 1011.4
20260503041600 48 0 0.0 0.0 0.00 0.00 0.00 55 1011.4
20260503041054 48 0 0.0 0.0 0.00 0.00 0.00 54 1011.4
20260503040552 48 0 0.0 0.9 0.00 0.00 0.00 56 1011.4
20260503040104 48 0 0.0 0.9 0.00 0.00 0.00 54 1011.4
20260503035554 48 0 0.0 0.9 0.00 0.00 0.00 54 1011.4
20260503035053 48 0 0.0 0.0 0.00 0.00 0.00 54 1011.3
20260503034602 48 0 0.0 0.0 0.00 0.00 0.00 54 1011.3
20260503034053 48 0 0.0 0.0 0.00 0.00 0.00 54 1011.3
20260503033558 48 0 0.0 0.0 0.00 0.00 0.00 54 1011.3
20260503033058 48 0 0.0 0.0 0.00 0.00 0.00 53 1011.3
20260503032554 48 0 0.0 0.0 0.00 0.00 0.00 55 1011.3
20260503032052 48 0 0.0 0.0 0.00 0.00 0.00 53 1011.3
20260503031555 48 0 0.0 0.0 0.00 0.00 0.00 55 1011.4
20260503031053 48 0 0.0 0.0 0.00 0.00 0.00 56 1011.4
20260503030552 48 0 0.0 0.0 0.00 0.00 0.00 54 1011.4
20260503030124 48 0 0.0 0.0 0.00 0.00 0.00 54 1011.5
20260503025552 48 0 0.0 0.0 0.00 0.00 0.00 57 1011.5
20260503025056 48 0 0.0 0.0 0.00 0.00 0.00 56 1011.5
20260503024621 48 0 0.0 0.0 0.00 0.00 0.00 55 1011.5
20260503024053 48 0 0.0 0.0 0.00 0.00 0.00 53 1011.5
20260503023555 48 0 0.0 0.0 0.00 0.00 0.00 53 1011.5
20260503023057 48 0 0.0 0.0 0.00 0.00 0.00 54 1011.5
20260503022552 49 0 0.0 0.0 0.00 0.00 0.00 56 1011.5
20260503022056 49 0 0.0 0.0 0.00 0.00 0.00 54 1011.4
20260503021606 49 0 0.0 0.0 0.00 0.00 0.00 53 1011.5
20260503021053 49 0 0.0 0.0 0.00 0.00 0.00 55 1011.6
20260503020553 49 0 0.0 0.0 0.00 0.00 0.00 54 1011.5
20260503020055 49 0 0.0 0.0 0.00 0.00 0.00 55 1011.5
20260503015552 49 0 0.0 0.0 0.00 0.00 0.00 54 1011.6
20260503015052 49 0 0.0 0.0 0.00 0.00 0.00 53 1011.6
20260503014604 49 0 0.0 0.0 0.00 0.00 0.00 53 1011.5
20260503014052 49 0 0.0 0.0 0.00 0.00 0.00 54 1011.6
20260503013552 50 0 0.0 0.0 0.00 0.00 0.00 55 1011.7
20260503013054 50 0 0.0 0.0 0.00 0.00 0.00 57 1011.7
20260503012552 50 0 0.0 0.0 0.00 0.00 0.00 57 1011.6
20260503012052 50 0 0.0 0.0 0.00 0.00 0.00 58 1011.8
20260503011558 50 0 0.0 0.0 0.00 0.00 0.00 58 1011.7
20260503011052 50 0 0.0 0.0 0.00 0.00 0.00 59 1011.7
20260503010553 50 0 0.0 0.0 0.00 0.00 0.00 57 1011.6
20260503010106 50 0 0.0 0.0 0.00 0.00 0.00 56 1011.5
20260503005557 50 0 0.0 0.0 0.00 0.00 0.00 57 1011.5
20260503005053 50 0 0.0 0.0 0.00 0.00 0.00 56 1011.4
20260503004555 50 0 0.0 0.0 0.00 0.00 0.00 59 1011.2
20260503004052 50 0 0.0 0.0 0.00 0.00 0.00 57 1011.2
20260503003552 50 0 0.0 0.0 0.00 0.00 0.00 59 1011.2
20260503003059 50 0 0.0 0.0 0.00 0.00 0.00 60 1011.2